Location: Bremen
(53.0793°N, 8.8017°E)
Time: 01:36:03
(UTC+01:00)

Transit 2A - Pass Details

Date: 01 December 2022
Orbit: 593 x 963 km, 66.7° (Epoch: 05 February)

Event Time Altitude Azimuth Distance (km) Brightness Sun altitude
Rises 17:01:10 0° 319° (NW) 3,133 9.4 -7.1°
Reaches altitude 10° 17:03:25 10° 320° (NW) 2,263 8.6 -7.4°
Maximum altitude 17:08:38 90° 238° (WSW) 809 6.2 -8.1°
Drops below altitude 10° 17:14:25 10° 142° (SE) 2,503 8.5 -8.9°
Sets 17:17:01 0° 143° (SE) 3,489 9.3 -9.3°
